THOR ABLESTAR DEB, 1608

Orbit data source: Space-Track

THOR ABLESTAR DEB, 1608 is space debris in LEO originally from a launch on Sun, 13 Dec 1964 UTC launched from the Air Force Western Test Range (AFWTR). Debris objects in space refer to the collection of defunct objects orbiting the Earth. Examples of debris include non-operational satellites, rocket bodies, and fragments generated from explosions, collisions, or faulty payload assembly.

Loading next visibility...
Identifier
1608, 1964-083H
Orbit
LEO
Country
Flag of USUS
Related business
Manufacturer
Unknown
Mission
Spacecraft
Bus & Motor
Unknown
Mass
Unknown
Launch date (UTC)
1964-12-13 (61 years ago)
Launch vehicle
Unknown
Launch site
Air Force Western Test Range (AFWTR)
Object type
Payload
Rocket body
Debris
Shape & HBR
Unknown shape, 0.1 m
Radar Cross Section
Small (<0.1 m²)

Expand to show TLE details & history
Last TLE update: 22 hours ago

TLE from 22 hours ago
0 THOR ABLESTAR DEB
1 01608U 64083H   25301.38403016  .00001365  00000-0  11817-2 0  9997
2 01608  89.7586  72.2426 0018778 105.2548 308.7490 13.85733528 42810
Epoch: 2025-10-28T09:13Z
TLE epoch observation values (Epoch: 2025-10-28T09:13:00.205Z)
Latitude
53.93105°
Longitude
-102.65086°
Altitude
943.982 km
Speed
7.389 km/s
True Right ascension
04h 50m 17s
True Declination
53° 46' 17"
Sunlit
Object was in full shadow at epoch
Visualization orbit readout
Latitude
Unknown
Longitude
Unknown
Altitude
Unknown
Speed
Unknown
Apparent Right ascension
Unknown
Apparent Declination
Unknown
Sunlit
N/A
Visualization observer readout
Local Sidereal Time
02:40:33
Azimuth
Unknown
Elevation
Unknown
Doppler factor
Unknown
Orbital elements
Apogee altitude
954.362 km
Perigee altitude
926.876 km
Semi-major axis
7,318.756 km
Eccentricity
0.00188
Inclination
89.7586°
RAAN
72.2426°
Arg. of periapsis
105.2548°
True anomaly
308.58094°
Mean anomaly
308.749°
Eccentric anomaly
308.66499°
Mean motion
3.46647 °/min
Orbital period
103.85 mins
BSTAR
0.0011817

Documentation

Showing up to 5 results
|